Location: Boiro
(42.6475°N, 8.8834°W)
Time: 21:01:17
(UTC+01:00)

Vanguard 1 - Pass Details

Date: 08 December 2021
Orbit: 652 x 3830 km, 34.2° (Epoch: 19 January)

Event Time Altitude Azimuth Distance (km) Brightness Sun altitude
Rises 05:12:10 0° 278° (W) 7,903 - -39.7°
Reaches altitude 10° 05:17:43 10° 275° (W) 6,937 - -38.7°
Exits shadow 05:34:40 47° 240° (WSW) 4,235 12.7 -35.6°
Maximum altitude 05:39:30 52° 208° (SSW) 3,808 12.7 -34.7°
Drops below altitude 10° 05:54:29 10° 137° (SE) 4,941 14.1 -32.0°
Sets 05:57:41 0° 132° (SE) 5,590 14.6 -31.4°
